Location: Litvinovka
(48.6667°N, 34.3500°E)
Time: 10:27:12
(UTC+00:00)

Resurs 01 Rocket - Pass Details

Date: 18 September 2020
Orbit: 633 x 645 km, 98.0° (Epoch: 30 October)

Event Time Altitude Azimuth Distance (km) Brightness Sun altitude
Exits shadow 19:19:14 22° 268° (W) 1,424 3.7 -31.8°
Maximum altitude 19:19:14 22° 268° (W) 1,424 3.7 -31.8°
Drops below altitude 10° 19:22:42 10° 319° (NW) 2,052 5.1 -32.1°
Sets 19:25:22 0° 335° (NNW) 2,967 6.1 -32.4°
